Flag for Poland Weather past 2 weeks in Włocławek, Poland

Now
65 °F

Mild.


Feels Like: 65 °F
Forecast: 70 / 89 °F
Wind: 2 mph from Northeast

Location: Plock

Current Time: Aug 4, 2015 at 4:30:18 AM

Latest Report: Aug 4, 2015 at 3:00 AM


Visibility: 19 mi

Pressure: 30.09 "Hg

Humidity: 61%

Dew point: 51 °F

Location of WłocławekLocation

Historic Weather in Włocławek — Graph

°F

Włocławek temperature yesterday

Maximum temperature yesterday: 86 °F (at 5:00 PM)
Minimum temperature yesterday: 55 °F (at 6:00 AM)
Average temperature yesterday: 72 °F

Past Weeks' High & Low Weather Summary

 TemperatureHumidityPressure
High88 °F (Jul 25, 2:00 PM)97% (Jul 25, 9:00 PM)30.17 "Hg (Jul 25, 9:00 PM)
Low43 °F (Aug 1, 4:00 AM)26% (Aug 3, 4:00 PM)29.61 "Hg (Jul 25, 3:00 PM)
Average66 °F65%29.90 "Hg
* Reported Jul 20 3:00 AM — Aug 4 3:00 AM, Włocławek, Weather by CustomWeather, © 2015

Note: Actual official high and low records may vary slightly from our data, if they occured in-between our weather recording intervals... More about our weather records

Advertising

Włocławek weather history for previous 24 hours

 ConditionsComfort  
Time TempWeatherWind HumidityBarometerVisibility
3:00 AM
Tue, Aug 4
65 °FMild.2 mph61%30.09 "Hg19 mi
2:00 AM66 °FMild.2 mph59%30.09 "Hg22 mi
1:00 AM68 °FMild.1 mph53%30.10 "Hg22 mi
12:00 AM69 °FMild.2 mph53%30.10 "Hg18 mi
10:00 PM
Mon, Aug 3
69 °FMild.2 mph57%30.10 "Hg11 mi
9:00 PM73 °FMild.2 mph48%30.09 "Hg11 mi
8:00 PM79 °FPleasantly warm.2 mph38%30.08 "Hg14 mi
7:00 PM84 °FPleasantly warm.2 mph32%30.08 "Hg18 mi
6:00 PM85 °FPleasantly warm.2 mph28%30.08 "Hg25 mi
5:00 PM86 °FPleasantly warm.2 mph28%30.08 "Hg19 mi
4:00 PM85 °FPleasantly warm.2 mph26%30.09 "Hg19 mi
3:00 PM85 °FPleasantly warm.3 mph27%30.09 "Hg2 mi
2:00 PM85 °FPleasantly warm.2 mph28%30.10 "Hg18 mi
12:00 PM83 °FPleasantly warm.2 mph31%30.11 "Hg17 mi
11:00 AM82 °FPleasantly warm.3 mph29%30.12 "Hg19 mi
10:00 AM78 °FWarm.2 mph42%30.12 "Hg18 mi
9:00 AM74 °FMild.1 mph52%30.12 "Hg16 mi
8:00 AM68 °FMild.1 mph61%30.13 "Hg18 mi
7:00 AM62 °FCool.1 mph78%30.13 "Hg17 mi
6:00 AM55 °FCool.No wind86%30.14 "Hg15 mi
5:00 AM55 °FCool.1 mph83%30.12 "Hg18 mi
4:00 AM56 °FCool.1 mph86%30.13 "Hg14 mi
Weather by CustomWeather, © 2015

See weather overviewHow to use our weather pages